Flag for United Kingdom Weather past 2 weeks in Edinburgh, Scotland, United Kingdom

Now
55 °F

Mostly cloudy.


Feels Like: 54 °F
Forecast: 57 / 63 °F
Wind: 7 mph from East

Location: Edinburgh Airport

Current Time: Sep 17, 2014 at 3:01:41 AM

Latest Report: Sep 17, 2014 at 2:20 AM


Visibility: 5 mi

Pressure: 30.07 "Hg

Humidity: 94%

Dew point: 54 °F

Location of EdinburghLocation

Historic Weather in Edinburgh — Graph

°F

Edinburgh temperature yesterday

Maximum temperature yesterday: 61 °F (at 10:50 AM)
Minimum temperature yesterday: 54 °F (at 11:50 PM)
Average temperature yesterday: 58 °F

Past Weeks' High & Low Weather Summary

 TemperatureHumidityPressure
High68 °F (Sep 4, 5:20 PM)100% (Sep 3, 3:20 AM)30.42 "Hg (Sep 3, 3:20 AM)
Low41 °F (Sep 8, 7:20 AM)49% (Sep 8, 3:20 PM)29.95 "Hg (Sep 6, 3:20 PM)
Average56 °F87%30.17 "Hg
* Reported Sep 2 1:20 AM — Sep 17 1:50 AM, Edinburgh, Weather by CustomWeather, © 2014

Note: Actual official high and low records may vary slightly from our data, if they occured in-between our weather recording intervals... More about our weather records

Advertising

Edinburgh weather history for previous 24 hours

 ConditionsComfort  
Time TempWeatherWind HumidityBarometerVisibility
1:50 AM
Sep 17
55 °FMostly cloudy.7 mph100%30.07 "Hg6 mi
1:20 AM54 °FPassing clouds.8 mph100%30.07 "Hg5 mi
12:50 AM54 °FFog.5 mph94%30.07 "Hg1 mi
12:20 AM54 °FFog.2 mph100%30.07 "Hg0 mi
11:50 PM
Sep 16
54 °FFog.5 mph94%30.07 "Hg1 mi
11:20 PM55 °FFog.7 mph100%30.07 "Hg1 mi
10:50 PM55 °FFog.7 mph100%30.07 "Hg1 mi
10:20 PM55 °FFog.5 mph100%30.07 "Hg1 mi
9:50 PM57 °FFog.6 mph100%30.07 "Hg1 mi
9:20 PM57 °FFog.6 mph100%30.07 "Hg1 mi
8:50 PM57 °FFog.7 mph100%30.07 "Hg1 mi
8:20 PM57 °FFog.7 mph100%30.04 "Hg1 mi
7:50 PM57 °FFog.7 mph100%30.04 "Hg1 mi
7:20 PM57 °FFog.10 mph100%30.04 "Hg1 mi
6:50 PM57 °FFog.10 mph100%30.04 "Hg3 mi
6:20 PM57 °FFog.9 mph100%30.04 "Hg3 mi
5:50 PM59 °FBroken clouds.8 mph94%30.04 "Hg4 mi
5:20 PM59 °FPartly sunny.9 mph94%30.04 "Hg4 mi
4:50 PM61 °FPartly sunny.7 mph94%30.04 "Hg4 mi
4:20 PM61 °FPartly sunny.8 mph88%30.04 "Hg4 mi
3:50 PM59 °FOvercast.7 mph94%30.04 "Hg4 mi
3:20 PM59 °FOvercast.8 mph94%30.04 "Hg5 mi
2:50 PM61 °FOvercast.9 mph88%30.04 "Hg6 mi
2:20 PM61 °FOvercast.9 mph88%30.04 "HgN/A
1:50 PM61 °FPartly sunny.10 mph88%30.04 "HgN/A
1:20 PM59 °FPartly sunny.10 mph94%30.04 "HgN/A
12:50 PM61 °FBroken clouds.9 mph88%30.04 "HgN/A
12:20 PM61 °FPartly sunny.10 mph88%30.04 "HgN/A
11:50 AM61 °FPartly sunny.8 mph88%30.07 "HgN/A
11:20 AM61 °FBroken clouds.6 mph88%30.07 "HgN/A
10:50 AM61 °FPartly sunny.7 mph88%30.07 "HgN/A
10:20 AM59 °FBroken clouds.6 mph94%30.07 "HgN/A
9:50 AM59 °FPartly sunny.6 mph94%30.07 "HgN/A
9:20 AM59 °FPartly sunny.6 mph94%30.04 "HgN/A
8:50 AM57 °FOvercast.5 mph100%30.04 "HgN/A
8:20 AM57 °FFog.2 mph94%30.04 "Hg2 mi
7:50 AM55 °FFog.6 mph100%30.04 "Hg2 mi
7:20 AM55 °FFog.5 mph100%30.04 "Hg2 mi
6:50 AM55 °FFog.6 mph100%30.04 "Hg1 mi
6:20 AM55 °FFog.5 mph100%30.04 "Hg1 mi
5:50 AM55 °FFog.7 mph100%30.04 "Hg1 mi
5:20 AM57 °FFog.3 mph94%30.04 "Hg1 mi
4:50 AM57 °FCool.3 mph94%30.04 "Hg1 mi
4:20 AM57 °FFog.5 mph94%30.04 "Hg1 mi
3:50 AM57 °FFog.3 mph94%30.04 "Hg1 mi
3:20 AM57 °FFog.3 mph100%30.04 "Hg1 mi
Weather by CustomWeather, © 2014

See weather overviewHow to use our weather pages